RH
35 36 37 38 32 29 26 28 22 21 31 32 27 24 23 24 26 26 26 31 29 23 26 22 16 17 15 20 21 18 30 40 35 34 32 24 26 22 21 25 24 23 24 21 20
26 36 35 35 29 22 22 24 20 27 27 25 25 26 27 26 26 23 21 22 22 24 23 16 16 15 22 26 26 34 44 33 27 28 31 26 26 25 26 26 26 25 21 20 22
21 31 32 33 24 20 22 19 24 26 28 31 30 29 27 29 21 20 20 20 19 20 21 17 14 18 27 27 26 28 36 30 27 25 25 28 27 24 29 33 28 28 25 22 23
23 28 30 30 20 18 18 22 25 26 28 28 24 22 23 28 25 19 20 19 18 17 17 14 14 22 30 31 23 30 26 27 28 25 24 26 25 29 28 29 24 24 23 24 24
30 29 30 29 19 17 20 24 26 29 28 26 24 21 23 19 20 18 20 19 16 15 15 16 19 24 28 27 27 31 29 25 25 23 24 23 27 27 27 23 21 22 24 25 25
34 31 29 26 18 20 25 29 28 27 21 20 19 20 24 24 18 19 20 18 17 17 18 16 19 19 24 25 29 28 26 24 22 23 23 25 25 22 23 20 21 23 26 25 25
33 31 29 22 19 23 25 26 26 21 21 19 17 22 19 21 18 18 18 18 17 17 18 17 16 20 23 28 22 23 29 27 26 24 24 22 28 27 20 19 20 22 25 25 25
32 30 29 21 18 21 25 24 22 23 19 17 18 20 21 18 18 18 18 14 14 16 16 17 16 21 23 21 23 26 29 38 27 25 24 28 40 25 19 21 22 21 24 25 24
30 31 29 22 20 26 23 22 22 18 16 16 19 17 20 17 18 17 18 17 14 14 15 16 17 23 23 26 30 29 32 36 32 26 26 31 38 27 20 21 23 22 24 24 26
30 30 27 26 25 23 21 22 20 18 18 16 14 17 17 17 18 16 17 17 15 13 15 16 20 27 24 26 36 28 21 23 37 26 28 32 35 29 24 22 22 22 26 26 28
29 26 24 24 24 26 23 20 23 17 16 19 19 18 16 15 16 16 16 15 14 12 18 15 23 29 23 23 22 21 18 19 30 27 30 27 31 31 26 24 24 24 28 27 29
25 25 25 29 28 24 27 23 31 19 21 15 15 16 17 16 16 18 17 15 14 19 14 19 28 22 19 19 20 18 17 27 28 27 31 29 30 30 28 27 28 28 29 28 29
32 33 30 27 26 28 27 34 35 25 20 20 16 18 19 17 21 21 19 17 18 18 20 25 22 18 18 20 21 17 22 25 23 29 29 30 35 35 29 29 27 26 26 26 30
36 34 30 27 29 24 29 34 32 26 22 21 18 17 16 18 25 18 20 20 18 22 21 22 18 19 18 22 25 26 26 23 23 28 38 30 42 38 36 35 31 27 28 27 32
35 32 28 26 30 25 36 36 25 30 28 20 19 16 16 21 22 21 18 17 22 21 23 30 26 26 23 26 25 24 24 26 29 32 31 37 41 42 35 37 33 28 28 29 31
35 31 31 36 32 36 30 28 25 27 33 24 19 20 18 21 21 18 18 18 20 20 24 27 23 25 27 26 25 25 28 28 28 34 43 36 34 46 38 32 30 28 28 28 31
34 32 31 38 44 32 32 27 33 29 21 24 24 20 22 24 23 24 25 29 31 34 27 26 26 26 22 26 26 24 28 36 38 47 39 27 31 42 32 31 30 28 28 29 35
34 32 32 34 41 32 30 30 30 22 24 23 23 22 25 27 26 22 24 29 30 32 29 27 34 30 23 27 29 32 27 32 32 33 29 26 32 44 30 28 25 23 26 32 38
36 40 44 37 30 28 33 33 41 28 21 23 24 24 28 25 26 23 31 33 36 33 41 31 36 27 27 24 23 26 31 23 26 23 28 27 38 32 30 27 24 26 30 38 44
36 34 42 33 28 35 36 35 32 28 26 23 26 26 24 26 25 23 27 35 34 31 27 29 36 27 30 26 22 21 17 27 27 35 34 28 31 43 39 29 30 31 36 40 45
38 41 43 29 31 40 40 36 33 30 31 31 27 25 27 28 26 27 32 36 32 31 29 24 27 31 26 28 27 29 25 20 21 24 34 36 38 24 32 31 30 29 38 42 47
44 50 36 28 40 34 38 32 38 32 29 30 29 32 31 31 31 32 36 41 30 29 29 28 33 32 30 23 21 25 23 20 28 26 28 28 32 26 28 27 26 33 38 42 46
52 48 34 34 43 46 37 39 37 34 36 31 34 36 30 34 41 35 41 31 29 34 38 35 32 35 34 32 23 26 23 19 20 21 27 31 38 24 25 25 26 31 42 46 47
54 51 47 43 40 35 35 35 44 40 38 33 36 31 32 34 35 42 44 46 31 36 35 38 36 33 34 28 26 28 25 23 23 29 28 28 24 32 27 28 27 35 48 51 50
57 58 54 51 40 32 31 34 40 43 35 34 35 35 31 35 34 39 42 46 38 52 35 33 42 32 31 28 24 26 30 27 30 27 29 26 26 27 28 26 29 42 49 53 52
58 52 42 45 36 41 39 37 36 42 38 36 38 34 32 35 38 36 36 36 37 34 30 35 43 27 30 23 22 27 27 25 26 26 26 24 28 24 21 26 38 51 54 59 48
45 38 53 54 39 38 40 36 38 42 43 40 36 37 38 38 34 33 31 31 32 31 35 35 38 33 46 22 30 47 26 26 21 22 22 28 28 24 28 34 50 59 61 57 30
Wind_Speed
5 6 6 5 5 6 8 10 10 11 11 10 9 9 7 5 6 11 13 9 11 13 15 9 3 3 9 4 7 1 7 7 5 7 9 11 6 9 15 18 18 10 11 15 15
4 6 5 5 6 6 9 11 13 13 15 14 11 6 3 5 5 17 14 13 12 10 15 14 6 5 6 8 5 6 5 6 8 11 11 13 11 9 10 13 13 9 15 16 17
5 5 5 6 6 9 13 14 15 16 12 6 3 3 5 7 1 8 16 14 14 11 5 6 5 11 9 8 8 5 5 9 13 13 13 14 15 6 13 9 8 9 8 15 17
5 5 5 8 8 13 15 15 15 10 3 2 2 3 5 4 4 12 14 16 15 13 7 2 2 5 6 8 9 14 10 11 11 12 10 8 9 12 16 8 8 9 13 15 16
3 4 6 9 11 14 14 13 10 4 1 2 3 4 4 6 7 13 14 14 10 8 11 8 11 10 7 10 16 15 12 11 12 12 11 12 12 11 9 8 10 12 13 13 16
4 7 11 12 13 14 13 10 7 4 5 4 4 6 1 12 8 11 11 13 13 14 18 17 12 14 8 7 8 10 15 15 12 10 11 11 8 5 6 6 7 8 8 12 14
7 11 14 14 14 13 11 8 6 7 5 4 4 9 19 7 7 11 9 12 14 13 14 10 2 6 7 12 18 19 13 10 8 7 5 14 7 7 6 5 5 7 7 9 12
11 15 15 14 14 12 9 9 8 4 4 2 3 6 5 5 10 14 8 12 13 11 12 8 14 8 6 17 10 6 8 5 6 7 7 1 4 6 6 5 5 5 7 7 12
14 16 16 14 13 11 12 8 6 6 5 4 5 6 5 4 7 11 8 6 6 9 9 16 15 8 10 8 5 6 4 6 5 9 2 8 4 7 4 4 4 5 7 7 8
12 15 16 15 12 14 10 7 8 13 3 3 6 10 6 5 4 7 9 6 2 3 5 4 4 5 2 4 4 7 6 4 8 2 7 6 8 7 5 4 3 4 7 6 7
14 15 15 17 13 10 9 1 4 3 16 8 8 9 7 7 7 12 14 6 4 3 4 3 6 7 7 6 6 7 6 3 4 3 2 3 7 8 6 4 4 5 6 6 7
15 16 15 11 11 7 5 5 3 4 8 10 11 11 9 9 4 19 23 3 2 5 3 6 6 6 7 2 5 5 6 3 3 5 2 5 6 9 7 4 6 5 5 5 6
13 12 12 12 3 2 3 5 4 4 2 4 5 6 3 9 6 10 13 8 5 9 11 8 3 3 5 7 7 2 3 5 5 4 6 6 5 10 8 7 5 5 5 5 6
11 10 8 4 0 4 4 3 4 4 2 3 4 5 5 3 4 7 8 1 2 6 6 5 1 4 3 5 6 3 5 5 7 2 3 5 4 6 9 7 6 5 4 6 8
10 6 3 1 4 1 1 3 4 1 3 3 4 2 6 5 2 5 6 3 7 4 3 2 5 7 6 4 5 3 2 4 4 5 5 7 2 2 9 6 7 6 7 8 7
8 5 5 3 2 1 1 5 3 3 3 3 2 1 4 8 3 2 2 5 2 2 8 4 1 3 4 6 5 9 6 9 4 3 3 6 3 5 3 3 6 8 7 6 7
7 5 1 4 2 2 4 4 3 2 2 3 3 2 5 5 4 4 6 8 4 3 2 5 4 4 5 5 4 7 8 2 2 1 2 6 3 4 7 8 8 3 5 6 8
6 4 1 2 2 2 3 3 2 2 5 1 1 3 3 5 3 2 3 4 10 6 3 3 2 6 6 4 3 5 4 3 4 4 5 6 2 3 8 7 5 3 6 8 8
8 4 1 4 2 1 2 1 4 6 3 2 3 4 3 3 2 2 6 4 5 8 5 5 3 2 4 3 4 5 4 2 4 7 4 4 5 3 6 6 3 6 7 7 8
3 4 1 3 1 1 2 4 3 4 4 3 3 4 3 4 2 2 3 3 3 5 6 4 3 1 3 2 0 2 3 1 1 5 5 5 3 3 7 4 7 6 6 7 6
1 2 2 2 2 3 3 4 5 4 5 5 4 2 5 3 5 3 4 2 5 4 5 4 2 1 0 2 3 1 2 1 1 1 2 5 3 4 7 5 0 4 6 6 7
2 1 4 3 1 2 3 4 2 2 1 3 3 6 5 5 4 3 3 5 5 4 4 3 3 4 4 3 3 2 2 1 1 1 3 4 3 7 7 5 4 6 6 6 7
1 2 3 4 2 3 3 4 5 2 4 3 2 5 2 3 1 3 5 3 3 4 4 5 1 3 1 0 0 4 4 0 2 1 5 1 4 7 7 4 6 5 7 7 7
2 2 1 1 1 5 5 4 4 3 3 3 2 1 2 2 2 3 3 2 2 3 1 1 3 3 3 2 3 4 5 6 4 2 4 6 3 7 4 5 5 7 8 8 6
3 2 1 3 1 3 3 4 4 3 2 2 1 3 2 2 3 3 4 4 2 3 2 2 3 4 8 11 7 6 7 7 9 9 4 5 8 6 6 5 6 8 7 7 6
1 2 1 2 3 7 1 5 5 3 1 3 1 4 2 2 3 3 2 3 4 3 2 3 3 2 5 2 2 6 8 8 9 8 11 13 7 5 4 7 7 8 7 6 6
1 1 1 2 2 2 2 4 5 8 2 4 2 4 4 2 5 4 5 4 4 1 5 2 2 3 5 2 7 7 3 10 5 6 4 4 3 3 4 5 5 6 6 5 6
Wind_Direction
96 89 84 99 113 120 127 126 123 118 112 110 112 117 111 89 38 42 41 339 340 354 345 310 224 351 62 14 7 192 82 59 31 115 140 127 99 82 90 79 65 69 74 64 47
115 103 92 105 112 125 130 130 125 119 114 109 109 94 33 352 68 52 2 357 359 11 10 12 16 159 53 19 29 56 72 40 70 95 112 111 85 85 79 69 74 74 64 61 51
124 116 100 114 117 137 136 131 128 128 120 100 57 349 315 319 21 34 358 5 9 11 327 313 315 87 70 47 17 12 98 77 77 85 92 89 58 46 127 64 54 65 59 48 52
122 128 116 125 130 132 132 131 134 132 119 42 26 315 311 307 70 3 1 14 11 4 300 200 15 36 39 84 83 109 98 107 105 114 97 89 86 72 75 95 87 69 61 51 41
141 150 140 138 132 133 133 134 138 140 87 360 312 323 326 79 30 351 11 8 15 18 9 359 122 94 96 102 79 82 99 85 87 87 90 86 77 95 96 109 101 84 65 53 45
132 154 145 145 139 140 135 136 128 109 83 47 6 322 279 73 356 7 19 33 28 54 25 50 72 87 80 26 53 110 102 108 116 119 134 117 127 112 117 128 110 89 72 58 51
146 147 146 147 144 141 134 129 118 112 33 31 28 76 65 61 26 20 35 39 39 62 63 41 338 53 100 88 115 124 112 119 139 148 130 142 102 104 129 133 118 104 90 85 52
146 141 146 146 143 141 133 127 114 65 35 28 349 78 76 74 44 27 31 64 56 64 70 68 70 64 64 121 156 113 159 159 178 151 177 198 113 135 166 145 126 98 81 58 52
139 139 145 144 141 138 132 118 92 68 47 349 328 145 82 51 26 17 35 27 72 74 82 77 82 98 141 158 184 178 278 123 166 192 191 194 127 146 180 171 120 80 75 51 45
135 141 144 142 141 139 142 134 91 34 302 339 324 115 33 30 2 13 1 347 326 195 172 205 138 148 257 354 19 335 330 84 120 109 196 242 115 150 184 184 135 79 61 46 46
130 139 142 137 141 149 129 171 242 84 48 60 32 82 60 331 67 12 351 306 238 318 108 263 63 40 6 344 319 285 325 10 112 126 309 233 151 159 169 201 193 62 40 30 37
127 130 134 134 138 149 287 292 26 111 79 53 93 84 52 319 349 10 358 329 300 97 173 62 62 14 298 313 286 310 325 73 115 135 184 187 204 147 166 175 69 29 11 345 37
125 123 132 134 123 344 28 72 43 7 139 58 66 47 12 11 38 1 360 332 11 68 64 67 36 310 325 38 355 289 15 12 317 155 209 290 253 147 167 127 151 208 226 30 45
133 126 141 165 354 158 58 31 0 355 190 40 22 44 9 325 65 16 358 355 61 62 70 72 56 307 252 86 359 293 22 310 294 149 299 177 300 166 161 186 177 229 75 29 46
144 130 115 82 328 44 173 358 347 312 187 9 56 336 71 71 304 42 341 15 43 37 237 56 49 351 38 7 341 336 320 284 301 281 275 187 264 93 143 190 195 111 53 36 40
154 140 93 29 352 82 288 333 335 235 92 103 51 327 172 58 39 169 72 70 357 67 55 96 215 46 343 300 259 284 257 221 226 231 251 127 197 187 148 191 100 57 42 24 27
166 169 99 359 6 281 325 292 259 3 251 98 55 35 89 25 61 25 69 44 32 337 128 165 76 127 328 282 197 326 324 29 303 203 233 145 256 70 104 70 75 51 39 28 32
155 173 1 333 312 327 325 266 357 9 49 64 163 114 61 347 85 32 233 79 37 346 309 328 210 351 353 47 321 311 356 49 308 320 285 121 261 158 104 113 146 57 49 39 24
116 97 26 318 328 18 276 302 20 31 22 135 191 258 121 125 326 240 54 45 40 14 19 2 86 149 56 5 350 341 49 345 284 255 270 173 97 88 148 162 170 41 46 32 33
118 174 355 322 321 333 263 88 84 38 334 293 359 336 45 33 256 348 49 354 53 41 338 28 286 12 110 250 273 355 294 311 261 318 303 311 125 179 182 162 41 8 42 30 34
114 244 340 318 344 250 26 59 104 52 359 4 16 101 50 53 358 55 55 68 36 2 305 347 212 156 138 201 33 263 215 231 15 202 261 301 252 71 99 91 286 22 54 34 43
315 176 338 332 163 353 72 59 326 104 6 45 22 26 35 11 41 72 69 44 8 333 6 58 326 280 76 74 360 327 339 283 207 347 260 255 272 116 141 185 92 62 50 49 48
1 108 9 4 145 105 151 88 44 124 29 32 76 22 344 66 108 28 85 105 33 25 25 0 221 302 231 338 271 245 169 236 351 66 242 184 286 175 194 117 70 62 68 50 37
319 115 29 71 230 118 143 137 107 13 80 43 119 268 191 143 9 137 132 131 70 55 3 340 298 249 259 310 171 260 183 188 209 250 305 252 324 194 166 73 48 55 66 48 31
9 71 298 163 220 126 68 132 127 133 59 278 138 294 328 141 172 135 92 141 173 126 246 332 264 356 287 282 283 256 258 251 208 235 263 277 323 61 83 56 57 69 61 37 22
94 165 94 35 78 107 160 185 138 120 63 159 268 94 3 41 22 48 141 196 97 171 270 141 272 309 282 68 252 259 233 238 244 260 261 272 294 102 100 60 49 57 52 27 20
306 318 42 291 177 208 142 144 137 124 18 22 30 125 113 78 46 60 62 64 62 37 196 230 304 358 268 229 292 293 233 194 205 208 224 246 128 108 58 39 75 74 53 31 27